Regional Weather Roundup
Issued by NWS Jackson, KY

Home | Current Version | Previous Version | Graphics & Text | Print | Product List | Glossary On
Versions: 1 2 3 4 5 6 7 8 9 10 11 12 13 14 15 16 17 18 19 20 21 22 23 24 25 26 27 28 29 30 31 32 33 34 35 36 37 38 39 40 41 42 43 44 45 46 47 48 49 50
000
ASUS43 KJKL 021910
RWRJKL

EAST KENTUCKY HOURLY WEATHER ROUNDUP
NATIONAL WEATHER SERVICE JACKSON KY
300 PM EDT SUN AUG 02 2015

NOTE: "FAIR" INDICATES FEW OR NO CLOUDS BELOW 12,000 FEET WITH
NO SIGNIFICANT WEATHER AND/OR OBSTRUCTIONS TO VISIBILITY.

* THESE REPORTS ARE NOT UNDER NWS QUALITY CONTROL AND MAY NOT
  REPORT WEATHER SUCH AS PRECIPITATION AND FOG.

KYZ079-080-083-085-087-088-110-112-115-119-120-022000
...EASTERN KENTUCKY...

CITY           SKY/WX    TMP DP  RH WIND       PRES   REMARKS
JACKSON        SUNNY     83  57  41 CALM      30.02F
LONDON         SUNNY     86  58  38 CALM      30.00F
SOMERSET*      SUNNY     82  55  39 CALM      30.00F
MONTICELLO*    SUNNY     87  61  41 CALM      30.02F
WILLIAMSBURG*  SUNNY     84  63  48 CALM      30.00F
MIDDLESBORO*   SUNNY     85  59  41 NE3       30.00F
HAZARD APT*    CLEAR     84  59  42 CALM      30.01F
BLACK MTN*       N/A     73  55  53 N2          N/A
PIKEVILLE APT* SUNNY     81  57  44 E7        30.03F
BIG SANDY*     CLEAR     85  60  42 SE5       30.02F
MOREHEAD APT*  CLEAR     82  57  42 CALM      30.02F
$$

KYZ035-036-041-042-044-050-067-078-099-022000
...CENTRAL KENTUCKY...

CITY           SKY/WX    TMP DP  RH WIND       PRES   REMARKS
MT STERLING*   SUNNY     84  63  48 CALM      30.02F
FLEMING/MASON* SUNNY     84  59  42 W8        30.01F
DANVILLE*      SUNNY     82  61  47 SE3       30.01F
RICHMOND*      SUNNY     84  57  39 SW5       30.00F
LEXINGTON      SUNNY     86  59  39 CALM      30.00F
FRANKFORT      SUNNY     84  57  39 VRB6      29.98F
$$

KYZ091>093-OHZ055-061-077-WVZ005-015-034-035-042-022000
...SOUTHERN OHIO/WEST VIRGINIA...

CITY           SKY/WX    TMP DP  RH WIND       PRES   REMARKS
COVINGTON      MOSUNNY   86  62  44 SW8       29.97F
COLUMBUS       MOSUNNY   86  60  41 SW12      29.94F
DAYTON         MOSUNNY   84  63  49 SW15G23   29.96F
WILMINGTON     SUNNY     85  60  42 SW8       29.97F
HUNTINGTON     MOSUNNY   85  57  38 S6        29.99S
CHARLESTON     MOSUNNY   83  55  38 VRB6      30.00F
PINEVILLE*     MOSUNNY   82  58  44 MISG      30.09F
BECKLEY        PTSUNNY   77  54  44 VRB3      30.08F
BLUEFIELD      MOSUNNY   78  49  35 VRB3      30.11F
$$

VAZ002-007-008-TNZ017-027-036-066-071-022000
...SOUTHWEST VIRGINIA/EAST TENNESSEE...

CITY           SKY/WX    TMP DP  RH WIND       PRES   REMARKS
WISE*          SUNNY     82  50  32 E3        30.09F
ABINGDON*      SUNNY     84  45  25 CALM      30.06S
BRISTOL        MOSUNNY   86  54  33 VRB5      30.02F
KNOXVILLE      MOSUNNY   88  61  40 N6        29.96F
OAK RIDGE      SUNNY     89  60  37 CALM      29.99F
CROSSVILLE     SUNNY     84  54  35 CALM      30.03F
NASHVILLE      MOSUNNY   88  58  36 CALM      29.97F
$$

...KEY TO REMARKS...
VSB - VISIBILITY IN MILES
WCI - WIND CHILL INDEX
HX  - HEAT INDEX

$$



USA.gov is the U.S. government's official web portal to all federal, state and local government web resources and services.